| time (UTC) | temp F | wind direction | speed knots | gust knots | rain 1hr in | rain 24hr in | rain mn in | humidity % | barometer mb |
| 20260503022159 | 37 | 277 | 0.0 | 0.0 | 0.00 | 0.01 | 0.01 | 86 | 1007.9 |
| 20260503021657 | 37 | 277 | 0.0 | 0.0 | 0.00 | 0.01 | 0.01 | 84 | 1007.7 |
| 20260503021153 | 38 | 277 | 0.0 | 0.0 | 0.00 | 0.01 | 0.01 | 84 | 1007.8 |
| 20260503020651 | 38 | 277 | 0.0 | 0.0 | 0.00 | 0.01 | 0.01 | 82 | 1007.9 |
| 20260503020148 | 39 | 277 | 0.0 | 0.0 | 0.00 | 0.01 | 0.01 | 81 | 1007.9 |
| 20260503015644 | 39 | 277 | 0.0 | 0.0 | 0.00 | 0.01 | 0.01 | 81 | 1007.8 |
| 20260503015141 | 39 | 277 | 0.0 | 0.0 | 0.00 | 0.01 | 0.01 | 80 | 1007.8 |
| 20260503014637 | 40 | 277 | 0.0 | 0.0 | 0.00 | 0.01 | 0.01 | 79 | 1007.9 |
| 20260503014135 | 40 | 277 | 0.0 | 0.0 | 0.00 | 0.01 | 0.01 | 79 | 1007.7 |
| 20260503013632 | 41 | 274 | 0.0 | 0.0 | 0.00 | 0.01 | 0.01 | 76 | 1007.7 |
| 20260503013130 | 41 | 274 | 0.0 | 0.0 | 0.00 | 0.01 | 0.01 | 77 | 1007.7 |
| 20260503012627 | 41 | 273 | 0.0 | 0.0 | 0.00 | 0.01 | 0.01 | 74 | 1007.8 |
| 20260503012124 | 41 | 272 | 0.0 | 0.0 | 0.00 | 0.01 | 0.01 | 72 | 1007.7 |
| 20260503011621 | 41 | 273 | 0.0 | 0.0 | 0.00 | 0.01 | 0.01 | 74 | 1007.5 |
| 20260503011118 | 42 | 272 | 0.0 | 0.0 | 0.00 | 0.01 | 0.01 | 73 | 1007.4 |
| 20260503010614 | 42 | 272 | 0.0 | 0.0 | 0.00 | 0.01 | 0.01 | 71 | 1007.5 |
| 20260503010111 | 42 | 268 | 0.0 | 0.0 | 0.00 | 0.01 | 0.01 | 70 | 1007.4 |
| 20260503005608 | 42 | 278 | 0.0 | 0.0 | 0.00 | 0.01 | 0.01 | 70 | 1007.4 |
| 20260503005106 | 42 | 280 | 0.0 | 0.0 | 0.00 | 0.01 | 0.01 | 70 | 1007.3 |
| 20260503004601 | 42 | 270 | 0.0 | 0.0 | 0.00 | 0.01 | 0.01 | 69 | 1007.3 |
| 20260503004100 | 42 | 264 | 0.0 | 0.0 | 0.00 | 0.01 | 0.01 | 69 | 1007.6 |
| 20260503003556 | 43 | 274 | 0.0 | 0.0 | 0.00 | 0.01 | 0.01 | 69 | 1007.3 |
| 20260503003053 | 43 | 277 | 0.0 | 0.0 | 0.00 | 0.01 | 0.01 | 68 | 1007.4 |
| 20260503002550 | 43 | 264 | 0.0 | 0.0 | 0.00 | 0.01 | 0.01 | 67 | 1007.3 |
| 20260503002047 | 43 | 275 | 0.0 | 0.0 | 0.00 | 0.01 | 0.01 | 67 | 1007.4 |
| 20260503001543 | 43 | 291 | 0.0 | 0.0 | 0.00 | 0.01 | 0.01 | 65 | 1007.4 |
| 20260503001041 | 43 | 275 | 0.0 | 0.0 | 0.00 | 0.01 | 0.01 | 65 | 1007.4 |
| 20260503000538 | 43 | 281 | 0.0 | 0.0 | 0.00 | 0.01 | 0.01 | 66 | 1007.3 |
| 20260503000035 | 43 | 272 | 0.0 | 0.0 | 0.00 | 0.01 | 0.01 | 64 | 1007.2 |
| 20260502235531 | 44 | 330 | 0.0 | 0.9 | 0.00 | 0.01 | 0.01 | 63 | 1007.1 |
| 20260502235030 | 44 | 251 | 0.9 | 0.9 | 0.00 | 0.01 | 0.01 | 63 | 1007.2 |
| 20260502234525 | 44 | 327 | 0.0 | 0.9 | 0.00 | 0.01 | 0.01 | 63 | 1007.2 |
| 20260502234023 | 44 | 287 | 0.0 | 0.0 | 0.00 | 0.01 | 0.01 | 63 | 1007.2 |
| 20260502233523 | 44 | 299 | 0.0 | 0.0 | 0.00 | 0.01 | 0.01 | 62 | 1007.0 |
| 20260502233021 | 44 | 269 | 0.0 | 0.0 | 0.00 | 0.01 | 0.01 | 62 | 1007.3 |
| 20260502232517 | 44 | 268 | 0.0 | 0.0 | 0.00 | 0.01 | 0.01 | 62 | 1007.1 |
| 20260502232014 | 45 | 279 | 1.7 | 1.7 | 0.00 | 0.01 | 0.01 | 60 | 1007.0 |
| 20260502231511 | 45 | 268 | 0.0 | 0.0 | 0.00 | 0.01 | 0.01 | 62 | 1006.9 |
| 20260502231009 | 45 | 267 | 0.0 | 0.0 | 0.00 | 0.01 | 0.01 | 61 | 1007.0 |
| 20260502230507 | 45 | 270 | 0.0 | 0.0 | 0.00 | 0.01 | 0.01 | 60 | 1007.0 |
| 20260502230006 | 45 | 281 | 0.0 | 0.9 | 0.00 | 0.01 | 0.01 | 61 | 1006.9 |
| 20260502225500 | 45 | 274 | 0.0 | 0.9 | 0.00 | 0.01 | 0.01 | 59 | 1006.9 |
| 20260502224958 | 45 | 253 | 0.0 | 0.0 | 0.00 | 0.01 | 0.01 | 60 | 1007.0 |
| 20260502224454 | 45 | 258 | 0.0 | 0.9 | 0.00 | 0.01 | 0.01 | 61 | 1006.9 |
| 20260502223951 | 45 | 263 | 0.0 | 0.0 | 0.00 | 0.01 | 0.01 | 58 | 1007.1 |
| 20260502223449 | 45 | 174 | 0.9 | 0.9 | 0.00 | 0.01 | 0.01 | 59 | 1007.0 |
| 20260502222947 | 45 | 268 | 1.7 | 1.7 | 0.00 | 0.01 | 0.01 | 61 | 1007.1 |
| 20260502222444 | 46 | 259 | 0.9 | 0.9 | 0.00 | 0.01 | 0.01 | 61 | 1007.0 |
| 20260502221944 | 46 | 273 | 0.9 | 1.7 | 0.00 | 0.01 | 0.01 | 61 | 1007.0 |
| 20260502221441 | 46 | 310 | 0.9 | 0.9 | 0.00 | 0.01 | 0.01 | 62 | 1007.0 |
| 20260502220938 | 45 | 273 | 0.9 | 0.9 | 0.00 | 0.01 | 0.01 | 62 | 1007.0 |
| 20260502220434 | 46 | 262 | 0.9 | 0.9 | 0.00 | 0.01 | 0.01 | 63 | 1007.2 |
| 20260502215931 | 46 | 260 | 0.9 | 0.9 | 0.00 | 0.01 | 0.01 | 63 | 1006.9 |
| 20260502215428 | 46 | 19 | 1.7 | 2.6 | 0.00 | 0.01 | 0.01 | 62 | 1007.1 |
| 20260502214925 | 46 | 274 | 0.9 | 1.7 | 0.00 | 0.01 | 0.01 | 63 | 1006.7 |
| 20260502214421 | 47 | 251 | 1.7 | 3.5 | 0.00 | 0.01 | 0.01 | 62 | 1006.8 |
| 20260502213919 | 46 | 280 | 0.0 | 0.0 | 0.00 | 0.01 | 0.01 | 56 | 1006.8 |
| 20260502213416 | 47 | 99 | 1.7 | 2.6 | 0.00 | 0.01 | 0.01 | 58 | 1006.7 |
| 20260502212915 | 47 | 285 | 1.7 | 1.7 | 0.00 | 0.01 | 0.01 | 57 | 1006.7 |
| 20260502212413 | 47 | 261 | 0.9 | 0.9 | 0.00 | 0.01 | 0.01 | 55 | 1006.8 |
| 20260502211910 | 47 | 164 | 0.0 | 0.9 | 0.00 | 0.01 | 0.01 | 54 | 1006.5 |
| 20260502211405 | 47 | 294 | 1.7 | 2.6 | 0.00 | 0.01 | 0.01 | 56 | 1006.5 |
| 20260502210903 | 47 | 216 | 2.6 | 2.6 | 0.00 | 0.01 | 0.01 | 52 | 1006.7 |
| 20260502210400 | 47 | 259 | 0.9 | 0.9 | 0.00 | 0.01 | 0.01 | 54 | 1006.7 |
| 20260502205857 | 47 | 20 | 1.7 | 2.6 | 0.00 | 0.01 | 0.01 | 57 | 1006.6 |
| 20260502205353 | 47 | 282 | 1.7 | 1.7 | 0.00 | 0.01 | 0.01 | 58 | 1006.7 |
| 20260502204850 | 47 | 127 | 0.9 | 1.7 | 0.00 | 0.01 | 0.01 | 59 | 1006.7 |
| 20260502204347 | 48 | 275 | 0.0 | 0.9 | 0.00 | 0.01 | 0.01 | 61 | 1006.5 |
| 20260502203845 | 47 | 236 | 0.0 | 0.0 | 0.00 | 0.01 | 0.01 | 60 | 1006.6 |
| 20260502203343 | 47 | 272 | 0.0 | 0.9 | 0.00 | 0.01 | 0.01 | 62 | 1006.7 |
| 20260502202838 | 46 | 141 | 0.9 | 1.7 | 0.00 | 0.01 | 0.01 | 61 | 1006.7 |
| 20260502202335 | 46 | 236 | 3.5 | 3.5 | 0.00 | 0.01 | 0.01 | 58 | 1006.8 |
| 20260502201833 | 46 | 350 | 0.9 | 0.9 | 0.00 | 0.01 | 0.01 | 62 | 1006.6 |
| 20260502201329 | 46 | 275 | 0.9 | 0.9 | 0.00 | 0.01 | 0.01 | 60 | 1006.7 |
| 20260502200825 | 47 | 302 | 0.9 | 1.7 | 0.00 | 0.01 | 0.01 | 61 | 1006.8 |
| 20260502200321 | 46 | 250 | 0.9 | 0.9 | 0.00 | 0.01 | 0.01 | 62 | 1006.8 |
| 20260502195819 | 46 | 256 | 0.0 | 0.0 | 0.00 | 0.01 | 0.01 | 61 | 1006.8 |
| 20260502195316 | 47 | 330 | 0.9 | 0.9 | 0.00 | 0.01 | 0.01 | 61 | 1006.7 |
| 20260502194813 | 47 | 54 | 2.6 | 3.5 | 0.00 | 0.01 | 0.01 | 62 | 1006.7 |
| 20260502194309 | 48 | 264 | 0.0 | 0.9 | 0.00 | 0.01 | 0.01 | 59 | 1006.8 |
| 20260502193805 | 48 | 90 | 3.5 | 6.1 | 0.00 | 0.01 | 0.01 | 54 | 1006.7 |
| 20260502193303 | 47 | 284 | 0.0 | 0.9 | 0.00 | 0.01 | 0.01 | 54 | 1006.8 |
| 20260502192758 | 47 | 275 | 0.9 | 1.7 | 0.00 | 0.01 | 0.01 | 57 | 1006.8 |
| 20260502192255 | 47 | 326 | 0.9 | 1.7 | 0.00 | 0.01 | 0.01 | 55 | 1006.9 |
| 20260502191752 | 47 | 279 | 0.9 | 1.7 | 0.00 | 0.01 | 0.01 | 55 | 1007.0 |
| 20260502191250 | 47 | 355 | 0.9 | 0.9 | 0.00 | 0.01 | 0.01 | 59 | 1006.9 |
| 20260502190747 | 47 | 70 | 0.9 | 1.7 | 0.00 | 0.01 | 0.01 | 59 | 1007.2 |
| 20260502190245 | 47 | 237 | 0.9 | 1.7 | 0.00 | 0.01 | 0.01 | 58 | 1007.0 |
| 20260502185744 | 48 | 282 | 1.7 | 1.7 | 0.00 | 0.01 | 0.01 | 59 | 1007.1 |
| 20260502185241 | 48 | 243 | 0.9 | 0.9 | 0.00 | 0.01 | 0.01 | 54 | 1007.0 |
| 20260502184737 | 48 | 209 | 0.9 | 1.7 | 0.00 | 0.01 | 0.01 | 54 | 1007.1 |
| 20260502184233 | 48 | 271 | 0.9 | 0.9 | 0.00 | 0.01 | 0.01 | 57 | 1007.0 |
| 20260502183730 | 47 | 237 | 0.0 | 0.0 | 0.00 | 0.01 | 0.01 | 59 | 1007.1 |
| 20260502183225 | 47 | 20 | 0.9 | 1.7 | 0.00 | 0.01 | 0.01 | 56 | 1007.0 |
| 20260502182721 | 47 | 272 | 3.5 | 5.2 | 0.00 | 0.01 | 0.01 | 55 | 1007.1 |
| 20260502182217 | 48 | 272 | 4.3 | 5.2 | 0.00 | 0.01 | 0.01 | 54 | 1007.0 |
| 20260502181714 | 48 | 243 | 0.9 | 0.9 | 0.00 | 0.01 | 0.01 | 55 | 1007.2 |
| 20260502181214 | 47 | 256 | 2.6 | 2.6 | 0.00 | 0.01 | 0.01 | 55 | 1007.0 |
| 20260502180710 | 47 | 246 | 0.9 | 1.7 | 0.00 | 0.01 | 0.01 | 56 | 1007.1 |
| 20260502180208 | 46 | 279 | 1.7 | 1.7 | 0.00 | 0.01 | 0.01 | 57 | 1007.0 |
| 20260502170131 | 49 | 265 | 1.7 | 2.6 | 0.00 | 0.01 | 0.01 | 50 | 1007.0 |
| 20260502164118 | 45 | 271 | 0.0 | 0.9 | 0.00 | 0.01 | 0.01 | 60 | 1007.3 |
| 20260502163609 | 45 | 190 | 2.6 | 5.2 | 0.00 | 0.01 | 0.01 | 58 | 1007.4 |
| 20260502163105 | 46 | 273 | 2.6 | 2.6 | 0.00 | 0.01 | 0.01 | 57 | 1007.4 |
| 20260502162602 | 48 | 230 | 4.3 | 6.1 | 0.00 | 0.01 | 0.01 | 59 | 1007.5 |
| 20260502162059 | 46 | 253 | 0.9 | 0.9 | 0.00 | 0.01 | 0.01 | 63 | 1007.6 |
| 20260502161556 | 46 | 277 | 1.7 | 1.7 | 0.00 | 0.01 | 0.01 | 60 | 1007.5 |
| 20260502161053 | 47 | 258 | 4.3 | 6.1 | 0.00 | 0.01 | 0.01 | 57 | 1007.5 |
| 20260502160551 | 47 | 264 | 2.6 | 3.5 | 0.00 | 0.01 | 0.01 | 55 | 1007.6 |
| 20260502152004 | 50 | 157 | 0.9 | 1.7 | 0.00 | 0.01 | 0.01 | 57 | 1007.5 |
| 20260502151501 | 48 | 140 | 1.7 | 1.7 | 0.00 | 0.01 | 0.01 | 59 | 1007.4 |
| 20260502150958 | 49 | 2 | 4.3 | 6.1 | 0.00 | 0.01 | 0.01 | 53 | 1007.5 |
| 20260502150455 | 49 | 254 | 1.7 | 2.6 | 0.00 | 0.01 | 0.01 | 58 | 1007.6 |
| 20260502130341 | 40 | 243 | 0.9 | 1.7 | 0.00 | 0.00 | 0.00 | 76 | 1007.5 |
| 20260502123323 | 38 | 286 | 1.7 | 2.6 | 0.00 | 0.00 | 0.00 | 83 | 1007.1 |
| 20260502122820 | 38 | 279 | 0.9 | 0.9 | 0.00 | 0.00 | 0.00 | 85 | 1007.1 |
| 20260502122316 | 37 | 286 | 0.0 | 0.9 | 0.00 | 0.00 | 0.00 | 90 | 1006.9 |
| 20260502121815 | 36 | 256 | 0.9 | 1.7 | 0.00 | 0.00 | 0.00 | 91 | 1007.1 |
| 20260502121312 | 35 | 314 | 0.9 | 0.9 | 0.00 | 0.00 | 0.00 | 97 | 1006.8 |
| 20260502120808 | 35 | 281 | 0.0 | 0.9 | 0.00 | 0.00 | 0.00 | 99 | 1007.2 |
| 20260502120305 | 34 | 261 | 0.9 | 0.9 | 0.00 | 0.00 | 0.00 | 99 | 1007.0 |
| 20260502115803 | 34 | 25 | 0.9 | 1.7 | 0.00 | 0.00 | 0.00 | 99 | 1006.8 |
| 20260502115259 | 35 | 265 | 1.7 | 1.7 | 0.00 | 0.00 | 0.00 | 99 | 1006.8 |
| 20260502114755 | 33 | 272 | 0.0 | 0.0 | 0.00 | 0.00 | 0.00 | 99 | 1006.8 |
| 20260502114253 | 33 | 266 | 0.0 | 0.0 | 0.00 | 0.00 | 0.00 | 99 | 1006.7 |
| 20260502113750 | 32 | 279 | 0.0 | 0.0 | 0.00 | 0.00 | 0.00 | 99 | 1006.8 |
| 20260502113248 | 32 | 277 | 0.0 | 0.0 | 0.00 | 0.00 | 0.00 | 99 | 1006.9 |
| 20260502112746 | 31 | 273 | 0.0 | 0.0 | 0.00 | 0.00 | 0.00 | 99 | 1006.8 |
| 20260502112243 | 31 | 273 | 0.0 | 0.0 | 0.00 | 0.00 | 0.00 | 99 | 1006.7 |
| 20260502111739 | 30 | 277 | 0.0 | 0.0 | 0.00 | 0.00 | 0.00 | 99 | 1006.8 |
| 20260502111237 | 30 | 271 | 0.0 | 0.0 | 0.00 | 0.00 | 0.00 | 99 | 1006.9 |
| 20260502110734 | 29 | 274 | 0.0 | 0.0 | 0.00 | 0.00 | 0.00 | 99 | 1006.8 |
| 20260502110232 | 29 | 278 | 0.0 | 0.0 | 0.00 | 0.00 | 0.00 | 99 | 1006.7 |
| 20260502105730 | 29 | 274 | 0.0 | 0.0 | 0.00 | 0.00 | 0.00 | 99 | 1006.8 |
| 20260502105226 | 29 | 274 | 0.0 | 0.0 | 0.00 | 0.00 | 0.00 | 99 | 1006.6 |
| 20260502104724 | 29 | 277 | 0.0 | 0.0 | 0.00 | 0.00 | 0.00 | 99 | 1006.6 |
| 20260502104221 | 29 | 277 | 0.0 | 0.0 | 0.00 | 0.00 | 0.00 | 99 | 1006.6 |
| 20260502103719 | 29 | 277 | 0.0 | 0.0 | 0.00 | 0.00 | 0.00 | 99 | 1006.6 |
| 20260502103216 | 29 | 277 | 0.0 | 0.0 | 0.00 | 0.00 | 0.00 | 99 | 1006.8 |
| 20260502102713 | 29 | 277 | 0.0 | 0.0 | 0.00 | 0.00 | 0.00 | 99 | 1006.6 |
| 20260502102209 | 29 | 278 | 0.0 | 0.0 | 0.00 | 0.00 | 0.00 | 99 | 1006.8 |
| 20260502101708 | 29 | 277 | 0.0 | 0.0 | 0.00 | 0.00 | 0.00 | 99 | 1006.7 |
| 20260502101206 | 29 | 277 | 0.0 | 0.0 | 0.00 | 0.00 | 0.00 | 99 | 1006.9 |
| 20260502100703 | 29 | 277 | 0.0 | 0.0 | 0.00 | 0.00 | 0.00 | 99 | 1006.7 |
| 20260502100201 | 29 | 277 | 0.0 | 0.0 | 0.00 | 0.00 | 0.00 | 99 | 1006.8 |
| 20260502091136 | 30 | 277 | 0.0 | 0.0 | 0.00 | 0.00 | 0.00 | 99 | 1006.8 |
| 20260502090632 | 30 | 277 | 0.0 | 0.0 | 0.00 | 0.00 | 0.00 | 99 | 1006.7 |
| 20260502090130 | 30 | 277 | 0.0 | 0.0 | 0.00 | 0.00 | 0.00 | 99 | 1006.7 |
| 20260502071527 | 32 | 276 | 0.0 | 0.0 | 0.00 | 0.00 | 0.00 | 99 | 1006.3 |
| 20260502071026 | 33 | 276 | 0.0 | 0.0 | 0.00 | 0.00 | 0.00 | 99 | 1006.4 |
| 20260502070523 | 33 | 272 | 0.0 | 0.0 | 0.00 | 0.00 | 0.00 | 99 | 1006.4 |
| 20260502070021 | 33 | 273 | 0.0 | 0.0 | 0.00 | 0.00 | 0.00 | 99 | 1006.6 |
| 20260502065519 | 33 | 265 | 0.0 | 0.0 | 0.00 | 0.00 | 0.00 | 99 | 1006.6 |
| 20260502065017 | 33 | 279 | 0.0 | 0.0 | 0.00 | 0.00 | 0.00 | 99 | 1006.6 |
| 20260502064515 | 33 | 281 | 0.0 | 0.0 | 0.00 | 0.00 | 0.00 | 99 | 1006.8 |
| 20260502064012 | 33 | 279 | 0.0 | 0.0 | 0.00 | 0.00 | 0.00 | 99 | 1006.9 |
| 20260502063510 | 33 | 279 | 0.0 | 0.0 | 0.00 | 0.00 | 0.00 | 99 | 1006.8 |
| 20260502063007 | 33 | 282 | 0.0 | 0.0 | 0.00 | 0.00 | 0.00 | 99 | 1006.7 |
| 20260502062503 | 33 | 275 | 0.0 | 0.0 | 0.00 | 0.00 | 0.00 | 99 | 1006.7 |
| 20260502062003 | 34 | 274 | 0.0 | 0.0 | 0.00 | 0.00 | 0.00 | 99 | 1006.7 |
| 20260502061500 | 34 | 277 | 0.0 | 0.0 | 0.00 | 0.00 | 0.00 | 99 | 1006.7 |
| 20260502060955 | 34 | 277 | 0.0 | 0.0 | 0.00 | 0.00 | 0.00 | 99 | 1007.0 |
| 20260502060451 | 35 | 277 | 0.0 | 0.0 | 0.00 | 0.00 | 0.00 | 99 | 1006.9 |
| 20260502055948 | 35 | 279 | 0.0 | 0.0 | 0.00 | 0.00 | 0.00 | 99 | 1006.8 |
| 20260502055446 | 36 | 273 | 0.0 | 0.0 | 0.00 | 0.00 | 0.00 | 99 | 1007.0 |
| 20260502054940 | 36 | 276 | 0.0 | 0.0 | 0.00 | 0.00 | 0.00 | 99 | 1007.0 |
| 20260502054438 | 35 | 277 | 0.0 | 0.0 | 0.00 | 0.00 | 0.00 | 99 | 1006.8 |
| 20260502053935 | 35 | 274 | 0.0 | 0.0 | 0.00 | 0.00 | 0.00 | 99 | 1006.8 |
| 20260502053432 | 35 | 274 | 0.0 | 0.0 | 0.00 | 0.00 | 0.00 | 99 | 1007.1 |
| 20260502052930 | 35 | 278 | 0.0 | 0.0 | 0.00 | 0.00 | 0.00 | 99 | 1007.2 |
| 20260502052428 | 34 | 275 | 0.0 | 0.0 | 0.00 | 0.00 | 0.00 | 99 | 1006.8 |
| 20260502051926 | 35 | 275 | 0.0 | 0.0 | 0.00 | 0.00 | 0.00 | 99 | 1006.9 |
| 20260502051423 | 35 | 275 | 0.0 | 0.0 | 0.00 | 0.00 | 0.00 | 99 | 1006.9 |
| 20260502050920 | 36 | 274 | 0.0 | 0.0 | 0.00 | 0.00 | 0.00 | 99 | 1007.0 |
| 20260502050416 | 36 | 275 | 0.0 | 0.0 | 0.00 | 0.00 | 0.00 | 99 | 1006.9 |
| 20260502045914 | 37 | 276 | 0.0 | 0.0 | 0.00 | 0.00 | 0.00 | 99 | 1006.9 |
| 20260502045411 | 37 | 276 | 0.0 | 0.0 | 0.00 | 0.00 | 0.00 | 99 | 1007.0 |
| 20260502044908 | 37 | 277 | 0.0 | 0.0 | 0.00 | 0.00 | 0.00 | 99 | 1006.7 |
| 20260502044403 | 36 | 276 | 0.0 | 0.0 | 0.00 | 0.00 | 0.00 | 99 | 1006.7 |
| 20260502043900 | 36 | 277 | 0.0 | 0.0 | 0.00 | 0.00 | 0.00 | 99 | 1006.8 |
| 20260502043358 | 35 | 275 | 0.0 | 0.0 | 0.00 | 0.00 | 0.00 | 99 | 1006.8 |
| 20260502042857 | 35 | 276 | 0.0 | 0.0 | 0.00 | 0.00 | 0.00 | 99 | 1006.6 |
| 20260502042355 | 34 | 274 | 0.0 | 0.0 | 0.00 | 0.00 | 0.00 | 99 | 1006.8 |
| 20260502041852 | 35 | 274 | 0.0 | 0.0 | 0.00 | 0.00 | 0.00 | 99 | 1006.8 |
| 20260502041349 | 35 | 274 | 0.0 | 0.0 | 0.00 | 0.00 | 0.00 | 99 | 1007.0 |
| 20260502040847 | 35 | 274 | 0.0 | 0.0 | 0.00 | 0.00 | 0.00 | 99 | 1006.8 |
| 20260502040343 | 35 | 273 | 0.0 | 0.0 | 0.00 | 0.00 | 0.00 | 99 | 1006.7 |
| 20260502035839 | 35 | 278 | 0.0 | 0.0 | 0.00 | 0.13 | 0.13 | 99 | 1006.8 |
| 20260502035336 | 35 | 275 | 0.0 | 0.0 | 0.00 | 0.13 | 0.13 | 99 | 1006.9 |
| 20260502034834 | 36 | 275 | 0.0 | 0.0 | 0.00 | 0.13 | 0.13 | 98 | 1006.9 |
| 20260502034332 | 36 | 275 | 0.0 | 0.0 | 0.00 | 0.13 | 0.13 | 98 | 1006.9 |
| 20260502033830 | 36 | 276 | 0.0 | 0.0 | 0.00 | 0.13 | 0.13 | 98 | 1006.8 |
| 20260502033327 | 36 | 277 | 0.0 | 0.0 | 0.00 | 0.13 | 0.13 | 98 | 1006.9 |
| 20260502032824 | 37 | 282 | 0.0 | 0.0 | 0.00 | 0.13 | 0.13 | 98 | 1006.9 |
| 20260502032320 | 37 | 275 | 0.0 | 0.0 | 0.00 | 0.13 | 0.13 | 98 | 1007.2 |
| 20260502031818 | 37 | 280 | 0.0 | 0.0 | 0.00 | 0.13 | 0.13 | 98 | 1006.9 |
| 20260502031316 | 38 | 276 | 0.0 | 0.0 | 0.00 | 0.13 | 0.13 | 98 | 1007.3 |
| 20260502030814 | 38 | 271 | 0.0 | 0.0 | 0.00 | 0.13 | 0.13 | 97 | 1007.1 |
| 20260502030312 | 38 | 272 | 0.0 | 0.0 | 0.00 | 0.13 | 0.13 | 97 | 1007.2 |
| 20260502025809 | 38 | 275 | 0.0 | 0.0 | 0.00 | 0.13 | 0.13 | 97 | 1007.2 |
| 20260502025307 | 39 | 278 | 0.0 | 0.0 | 0.00 | 0.13 | 0.13 | 97 | 1007.3 |
| 20260502024804 | 39 | 275 | 0.0 | 0.0 | 0.00 | 0.13 | 0.13 | 97 | 1007.0 |
| 20260502024302 | 39 | 273 | 0.0 | 0.0 | 0.00 | 0.13 | 0.13 | 96 | 1007.0 |
| 20260502023800 | 39 | 282 | 0.0 | 0.0 | 0.00 | 0.13 | 0.13 | 96 | 1006.9 |
| 20260502023257 | 39 | 273 | 0.0 | 0.0 | 0.00 | 0.13 | 0.13 | 95 | 1007.0 |
| 20260502022755 | 40 | 277 | 0.0 | 0.0 | 0.00 | 0.13 | 0.13 | 95 | 1007.0 |
| 20260502022250 | 40 | 280 | 0.0 | 0.0 | 0.00 | 0.13 | 0.13 | 94 | 1006.7 |